STARLINK-4185, 53139

Orbit data source: Space-Track

STARLINK-4185, 53139 is a payload satellite owned by SpaceX/Seattle (US) in LEO that was launched on Sun, 17 Jul 2022 UTC via an FALCON 9 launch vehicle from the Air Force Eastern Test Range (AFETR). Payload-class satellites include a variety of spacecraft equipped with specific instruments for various scientific and technological missions. These include communications satellites like Starlink; space stations such as the ISS; scientific satellites like the Hubble; Earth observation satellites from companies like Planet Labs, Umbra, and HawkEye 360; GPS; miniature CubeSats for education and research; and military/defense satellites.

Loading next visibility...
Identifier
53139, 2022-083H
Orbit
LEO
Country
Flag of USUS
Related business
Manufacturer
SpaceX/Seattle
Mission
Operational Commercial Communications
Bus & Motor
STARLINK, Unknown motor
Mass
297 kg wet, ~275 kg dry
Launch date (UTC)
2022-07-17 (4 years ago)
Launch vehicle
FALCON 9
Launch site
Air Force Eastern Test Range (AFETR)
Object type
Payload
Rocket body
Debris
Shape & HBR
Box + 1 Pan, 10.1 m
Radar Cross Section
13.562 m², Large (>1 m²)

Expand to show TLE details & history
Last TLE update: 3 days ago

TLE from 3 days ago
0 STARLINK-4185
1 53139U 22083H   26170.93461413  .00000347  00000-0  39903-4 0  9995
2 53139  53.1623  75.0157 0001139  86.3743 273.7379 15.08837500216658
Epoch: 2026-06-19T22:25Z
TLE epoch observation values (Epoch: 2026-06-19T22:25:50.660Z)
Latitude
-0.00001°
Longitude
-169.60186°
Altitude
540.591 km
Speed
7.593 km/s
True Right ascension
05h 00m 03s
True Declination
0° 00' 00"
Sunlit
Object was in daylight at epoch
Visualization orbit readout
Latitude
Unknown
Longitude
Unknown
Altitude
Unknown
Speed
Unknown
Apparent Right ascension
Unknown
Apparent Declination
Unknown
Sunlit
N/A
Visualization observer readout
Local Sidereal Time
21:31:08
Azimuth
Unknown
Elevation
Unknown
Doppler factor
Unknown
Orbital elements
Apogee altitude
540.793 km
Perigee altitude
539.217 km
Semi-major axis
6,918.142 km
Eccentricity
0.00011
Inclination
53.1623°
RAAN
75.0157°
Arg. of periapsis
86.3743°
True anomaly
273.72488°
Mean anomaly
273.7379°
Eccentric anomaly
273.73139°
Mean motion
3.77189 °/min
Orbital period
95.44 mins
BSTAR
0.000039903
Loading maneuver chart data...
Computing Atmospheric mass density...
Loading historical data...
Loading historical data...
Loading historical data...
Loading historical data...
Loading historical data...
Loading historical data...
Loading historical data...

Documentation

Showing up to 5 results
|